This demonstration page uses our WeatherBlox Daily Observations layout. Learn more.

38.88101, -77.10428

Hourly Observations for April 15, 2018

Temp ( °F °C ) Dew Point ( °F °C ) Humidity (%) Winds ( mph kmh ) Pressure ( in mb ) Visibility ( mi km ) Precip ( " mm )
12:52 am 00:52 Partly Cloudy 68 20 55 12.8 63 63 S 12 19 29.92 1013 10 16.0934 0 0
1:52 am 01:52 Partly Cloudy 67 19.4 55 12.8 66 66 S 9 15 29.92 1013 10 16.0934 0 0
2:52 am 02:52 Mostly Clear 66 18.9 55 12.8 68 68 S 12 19 29.93 1014 10 16.0934 0 0
3:52 am 03:52 Mostly Clear 65 18.3 56 13.3 73 73 S 10 17 29.95 1014 10 16.0934 0 0
4:52 am 04:52 Mostly Clear 65 18.3 58 14.4 78 78 S 10 17 29.97 1015 10 16.0934 0 0
5:52 am 05:52 Partly Cloudy 66 18.9 59 15 78 78 SE 7 11 29.99 1016 10 16.0934 0 0
6:28 am 06:28 Mostly Cloudy 61 16.1 54 12.2 78 78 NE 15 24 30 1016 10 16.0934 0 0
6:52 am 06:52 Cloudy 59 15 52 11.1 78 78 NE 15 24 30.01 1016 10 16.0934 0 0
7:52 am 07:52 Cloudy 59 15 52 11.1 78 78 NNE 9 15 30.04 1017 10 16.0934 0 0
8:52 am 08:52 Cloudy 60 15.6 53 11.7 78 78 NE 14 22 30.04 1017 10 16.0934 0 0
9:09 am 09:09 Cloudy 60 15.6 53 11.7 78 78 NE 14 22 30.06 1018 10 16.0934 0 0
9:52 am 09:52 Cloudy 59 15 52 11.1 78 78 NE 16 26 30.06 1018 9 14.48406 0 0
10:18 am 10:18 Cloudy 57 13.9 50 10 78 78 ENE 20 31 30.06 1018 7 11.26538 0 0
10:52 am 10:52 Cloudy 54 12.2 49 9.4 83 83 ENE 21 33 30.07 1018 7 11.26538 0 0
11:16 am 11:16 Cloudy with Light Rain 53 11.7 49 9.4 86 86 ENE 17 28 30.09 1019 2.5 4.02335 0.02 0.508
11:35 am 11:35 Cloudy with Light Rain 53 11.7 49 9.4 86 86 ENE 16 26 30.06 1018 6 9.65604 0.02 0.508
11:42 am 11:42 Cloudy with Light Rain 53 11.7 49 9.4 86 86 ENE 20 31 30.06 1018 4 6.43736 0.02 0.508
11:52 am 11:52 Cloudy 53 11.7 49 9.4 86 86 ENE 18 30 30.06 1018 10 16.0934 0.02 0.508
12:31 pm 12:31 Cloudy 53 11.7 48 8.9 83 83 ENE 18 30 30.06 1018 10 16.0934 0 0
12:52 pm 12:52 Cloudy 52 11.1 48 8.9 86 86 ENE 18 30 30.05 1018 10 16.0934 0 0
1:52 pm 13:52 Cloudy with Light Rain 51 10.6 48 8.9 89 89 ENE 14 22 30.03 1017 7 11.26538 0.01 0.254
2:21 pm 14:21 Cloudy with Light Rain 51 10.6 48 8.9 89 89 ENE 17 28 30.03 1017 9 14.48406 0 0.0254
2:45 pm 14:45 Cloudy with Light Rain 52 11.1 48 8.9 86 86 ENE 15 24 30 1016 10 16.0934 0 0.0254
2:52 pm 14:52 Cloudy with Light Rain 52 11.1 48 8.9 86 86 ENE 17 28 30.01 1016 10 16.0934 0 0.0254
3:52 pm 15:52 Cloudy 52 11.1 47 8.3 83 83 ENE 21 33 29.98 1015 9 14.48406 0 0.0254
4:52 pm 16:52 Cloudy with Light Rain 51 10.6 46 7.8 83 83 ENE 22 35 29.97 1015 10 16.0934 0 0.0254
5:22 pm 17:22 Cloudy with Light Rain 51 10.6 46 7.8 83 83 ENE 18 30 29.97 1015 4 6.43736 0.02 0.508
5:45 pm 17:45 Cloudy with Light Rain 50 10 46 7.8 86 86 ENE 15 24 29.97 1015 2 3.21868 0.03 0.762
5:50 pm 17:50 Cloudy with Light Rain 50 10 46 8 88 88 ENE 15 24 29.97 1015 2 3.21868 0.03 0.762
5:52 pm 17:52 Cloudy with Light Rain 50 10 46 7.8 86 86 ENE 15 24 29.96 1015 2 3.21868 0.04 1.016
5:58 pm 17:58 Cloudy with Light Rain 50 10 46 7.8 86 86 ENE 16 26 29.97 1015 4 6.43736 0 0.0254
6:02 pm 18:02 Cloudy with Light Rain 50 10 46 7.8 86 86 ENE 18 30 29.94 1014 8 12.87472 0 0.0254
6:52 pm 18:52 Cloudy with Light Rain 49 9.4 45 7.2 86 86 ENE 22 35 29.93 1014 10 16.0934 0 0.0254
7:01 pm 19:01 Cloudy with Light Rain 49 9.4 44 6.7 83 83 ENE 14 22 29.94 1014 6 9.65604 0 0.0254
7:10 pm 19:10 Cloudy with Rain 48 8.9 44 6.7 86 86 ENE 22 35 29.91 1013 2.5 4.02335 0.01 0.254
7:24 pm 19:24 Cloudy with Light Rain 48 8.9 45 7.2 89 89 NE 17 28 29.91 1013 2 3.21868 0.03 0.762
7:27 pm 19:27 Cloudy with Light Rain 48 8.9 45 7.2 89 89 ENE 17 28 29.91 1013 3 4.82802 0.03 0.762
7:52 pm 19:52 Cloudy with Mist and Fog 48 8.9 44 6.7 86 86 ENE 15 24 29.92 1013 5 8.0467 0.04 1.016
7:56 pm 19:56 Cloudy with Light Drizzle 48 8.9 45 7.2 89 89 ENE 20 31 29.91 1013 5 8.0467 0 0.0254
8:52 pm 20:52 Cloudy 48 8.9 44 6.7 86 86 ENE 17 28 29.89 1012 7 11.26538 0 0.0254
9:16 pm 21:16 Cloudy with Light Drizzle 48 8.9 44 6.7 86 86 ENE 18 30 29.88 1012 5 8.0467 0 0.0254
9:52 pm 21:52 Cloudy with Light Drizzle 48 8.9 44 6.7 86 86 ENE 22 35 29.85 1011 5 8.0467 0 0.0254
10:52 pm 22:52 Cloudy with Light Drizzle 49 9.4 46 7.8 90 90 ENE 17 28 29.78 1009 6 9.65604 0 0.0254
11:52 pm 23:52 Cloudy with Light Rain 50 10 47 8.3 89 89 NE 21 33 29.73 1007 4 6.43736 0 0.0254

Powered by AerisWeather